Location: �mondeville
(49.4591°N, 1.3431°W)
Time: 20:21:08
(UTC+00:00)

SL-16 R/B - Pass Details

Date: 22 October 2019
Orbit: 840 x 850 km, 71.0° (Epoch: 13 November)

Event Time Altitude Azimuth Distance (km) Brightness Sun altitude
Exits shadow 05:05:18 - 211° (SSW) 3,184 4.9 -15.5°
Reaches altitude 10° 05:07:12 10° 213° (SSW) 2,458 4.3 -15.2°
Maximum altitude 05:12:52 78° 300° (WNW) 869 2.1 -14.3°
Drops below altitude 10° 05:18:34 10° 27° (NNE) 2,480 5.0 -13.4°
Sets 05:21:02 0° 29° (NNE) 3,421 5.7 -13.0°
